Weather History for Clines Corner, NM

Change the Weather History Date:

Friday, December 6, 2013

  Actual Average (KSAF) Record (KSAF)
Temperature  
Mean Temperature 13 °F -  
Max Temperature 25 °F 52 °F 57 °F (2012)
Min Temperature 1 °F 14 °F -2 °F (2011)
Degree Days  
Heating Degree Days 52    
Moisture  
Dew Point 5 °F    
Average Humidity 73    
Maximum Humidity 87    
Minimum Humidity 48    
Precipitation  
Precipitation 0.00 in - - ()
Sea Level Pressure  
Sea Level Pressure 30.12 in    
Wind  
Wind Speed 11 mph (West)    
Max Wind Speed 18 mph    
Max Gust Speed -    
Visibility 8 miles    
Events      
Averages and records for this station are not official NWS values.
T = Trace of Precipitation, MM = Missing Value Source: NWS Daily Summary

Daily Weather History Graph

Daily Weather History Graph

Search for Another Location

Airport:

Trip Planner

Search our weather history database for the weather conditions in past years. The results will help you decide how hot, cold, wet, or windy it might be!

Date:

Astronomy

Dec. 06, 2013 Rise Set
Actual Time 6:56 AM MST 4:50 PM MST
Civil Twilight 6:28 AM MST 5:18 PM MST
Nautical Twilight 5:57 AM MST 5:50 PM MST
Astronomical Twilight 5:26 AM MST 6:20 PM MST
Moon 10:09 AM MST (12/6) 9:19 PM MST (12/6)
Length of Visible Light 10h 49m
Length of Day
9h 53m
Waxing Crescent, 20% of the Moon is Illuminated
Dec 6
Waxing Crescent
Dec 9
First Quarter
Dec 17
Full
Dec 25
Last Quarter
Jan 1
New

Hourly Weather History & Observations

Time (MST) Temp. Windchill Dew Point Humidity Pressure Visibility Wind Dir Wind Speed Gust Speed Precip Events Conditions
12:02 AM 5.0 °F -9.1 °F 1.9 °F 87% 29.87 in 1.0 mi SSE 9.2 mph - N/A   Mist
12:09 AM 1.0 °F -10.3 °F -2.0 °F 87% 29.87 in 1.2 mi South 5.8 mph - N/A   Scattered Clouds
12:12 AM 1.0 °F -10.3 °F -2.0 °F 87% 29.87 in 0.8 mi SSW 5.8 mph - N/A   Mist
12:25 AM 1.0 °F -14.0 °F -2.9 °F 83% 29.86 in 1.2 mi WSW 9.2 mph - N/A   Scattered Clouds
12:28 AM 1.0 °F -12.9 °F -2.9 °F 83% 29.86 in 3.0 mi WSW 8.1 mph - N/A   Scattered Clouds
12:53 AM 5.0 °F -13.0 °F 1.0 °F 84% 30.10 in 10.0 mi WSW 15.0 mph - N/A   Clear
1:53 AM 10.0 °F -7.6 °F 6.1 °F 84% 30.09 in 10.0 mi WSW 17.3 mph - N/A   Clear
2:53 AM 8.1 °F -9.6 °F 3.0 °F 80% 30.11 in 10.0 mi West 16.1 mph - N/A   Clear
3:53 AM 7.0 °F -11.0 °F 1.9 °F 80% 30.12 in 10.0 mi West 16.1 mph - N/A   Clear
4:53 AM 7.0 °F -11.0 °F 3.0 °F 84% 30.13 in 10.0 mi West 16.1 mph - N/A   Clear
5:53 AM 10.0 °F -7.6 °F 6.1 °F 84% 30.15 in 10.0 mi West 17.3 mph - N/A   Clear
6:53 AM 8.1 °F -10.7 °F 3.9 °F 83% 30.21 in 10.0 mi West 18.4 mph - N/A   Clear
7:53 AM 10.0 °F -5.2 °F 5.0 °F 80% 30.22 in 10.0 mi West 12.7 mph - N/A   Clear
8:53 AM 16.0 °F 0.1 °F 10.9 °F 81% 30.21 in 10.0 mi West 17.3 mph - N/A   Clear
9:53 AM 19.9 °F 6.7 °F 10.0 °F 65% 30.23 in 10.0 mi West 13.8 mph - N/A   Clear
10:53 AM 21.9 °F 9.2 °F 10.0 °F 60% 30.23 in 10.0 mi West 13.8 mph - N/A   Clear
11:53 AM 23.0 °F 11.1 °F 10.9 °F 60% 30.22 in 10.0 mi West 12.7 mph - N/A   Clear
12:53 PM 25.0 °F 14.8 °F 10.9 °F 55% 30.18 in 10.0 mi West 10.4 mph - N/A   Clear
1:53 PM 25.0 °F 14.8 °F 10.0 °F 53% 30.14 in 10.0 mi WNW 10.4 mph - N/A   Clear
2:53 PM 24.1 °F 13.1 °F 7.0 °F 48% 30.18 in 10.0 mi West 11.5 mph - N/A   Clear
3:53 PM 21.0 °F 12.4 °F 6.1 °F 53% 30.21 in 10.0 mi West 6.9 mph - N/A   Clear
4:53 PM 19.0 °F 11.1 °F 6.1 °F 57% 30.22 in 10.0 mi NW 5.8 mph - N/A   Clear
5:53 PM 17.1 °F - 5.0 °F 59% 30.22 in 10.0 mi Calm Calm - N/A   Clear
6:53 PM 10.0 °F -0.9 °F 1.9 °F 70% 30.30 in 10.0 mi ESE 6.9 mph - N/A   Clear